User: anonymous   Login
Location: Unspecified
(0.0000°N, 0.0000°E)
Time: 17:29:31
(UTC+00:00)
Language:

METEOR M2 - Orbit

View from above orbital plane
View from above orbital plane
View from above satellite
View from above satellite

Ground track
Ground track

The orbit data is extracted from the following two-line orbital elements,

1 40069U 14037A   21337.18174765 -.00000012  00000-0  13457-4 0  9997
2 40069  98.4475 358.8007 0005996 161.2018 198.9384 14.20692503383993
Epoch (UTC): 03 December 2021 04:21:42
Eccentricity: 0.0005996
inclination: 98.4475°
perigee height: 818 km
apogee height: 827 km
right ascension of ascending node: 358.8007°
argument of perigee: 161.2018°
revolutions per day: 14.20692503
mean anomaly at epoch: 198.9384°
orbit number at epoch: 38399

The dashed part of the orbit path shows where the satellite is in the earth's shadow,  

DLR